Погода в Халонге

Вьетнам     20°57′54″N   107°02′50″E
темп.,
°C
ветер,
м/с
пор.,
м/с
влажн.,
%
обл.,
%
осадки,
мм/ч
давл.,
гПа
погр.,
м
17 мая, пн
пн1701:00+26ююв129738 0.1 100698
04:00+26ююв139599 0.2 1007113
07:00+28ююв368841 0.8 1008568
10:00+31ююв476811 0.4 10091052
13:00+32ююв576667 0.4 10071165
16:00+30ююв4671100 0.0 1005879
19:00+27юв259059 0.0 1007286
22:00+27вюв249432 0.2 1008108
18 мая, вт
вт1801:00+27ююв2892100 0.4 1007504
04:00+26ююв22959 2.6 100798
07:00+28ююв378859 5.4 1009617
10:00+30ююв477256 1.6 10091056
13:00+31ююв5867100 2.2 10071208
16:00+30ююв5975100 0.0 1005969
19:00+27юв269281 0.2 1006312
22:00+27юв2595100 0.1 1007272
19 мая, ср
ср1901:00+27ю3993100 1.1 1006478
04:00+26ю389478 3.7 1005255
07:00+28ююв499066 6.9 1007771
10:00+29ююв5985100 5.5 1007796
13:00+30ююв6983100 7.8 1004896
16:00+29ююв4783100 0.3 1003749
19:00+27юв249529 0.4 1003152
22:00+27юв269571 0.1 1004283
20 мая, чт
чт2001:00+27ююв3992100 0.1 1003664
04:00+27ююв3993100 0.2 1003666
07:00+28ююв3890100 0.4 1005686
10:00+30ююв4679100 0.4 1005807
13:00+32ююв4568100 0.5 1002944
16:00+31юв3471100 0.1 1001700
19:00+27в249196 0.4 1002188
22:00+27в2393100 0.4 1004113
21 мая, пт
пт2101:00+27юв2690100 5.5 1003123
04:00+26юв2694100 22.8 1000226
07:00+26в2694100 33.5 1004245
10:00+29вюв3682100 1.0 1005565
13:00+28вюв3786100 1.4 1003505
16:00+28вюв2589100 0.1 1001487
19:00+27всв249689 0.2 1001152
22:00+26в249780 0.0 1004121